Powrót do katalogu

COSMOS 2605

AktywnyMilitariaPO
NORAD 67679·PAYLOAD·🇷🇺 Russia

Wystrzelony Feb 5, 2026 z Plesetsk Cosmodrome

Loading…

Następne Przeloty (najbliższe 24 godziny)

TLE

ŚwieżeSource: Space-Track

Epoka: Sep 14, 2026, 14:19 UTC

1 67679U 26023F   26257.59656094  .00008508  00000-0  32277-3 0  9999
2 67679  96.6125 311.4028 0020551 163.9272 196.2625 15.26855895 33638

Śledź COSMOS 2605 w czasie rzeczywistym z AllMySat

Download on the App Store